Regional Weather Roundup
Issued by NWS Cleveland, OH

Home | Current Version | Previous Version | Text Only | Print | Product List | Glossary Off
Versions: 1 2 3 4 5 6 7 8 9 10 11 12 13 14 15 16 17 18 19 20 21 22 23 24 25 26 27 28 29 30 31 32 33 34 35 36 37 38 39 40 41 42 43 44 45 46 47 48 49 50

699
ASUS41 KCLE 031812
RWRCLE
OHIO REGIONAL WEATHER ROUNDUP
NATIONAL WEATHER SERVICE WILMINGTON, OH
200 PM EDT TUE MAY 03 2016

NOTE: "FAIR" INDICATES FEW OR NO CLOUDS BELOW 12,000 FEET WITH NO
SIGNIFICANT WEATHER AND/OR OBSTRUCTIONS TO VISIBILITY.

OHZ001>008-015>018-024>027-034-035-043-044-031900-
   NORTHWEST OHIO

CITY           SKY/WX    TMP DP  RH WIND       PRES   REMARKS
DEFIANCE       PTSUNNY   58  41  53 CALM      29.90F
FINDLAY        CLOUDY    60  41  49 NW6       29.88F
TOLEDO EXPRESS FAIR      61  39  44 N10       29.88F
TOLEDO EXEC    CLOUDY    59  42  53 CALM      29.89F
LIMA           CLOUDY    56  45  66 NW6       29.89F
$$

OHZ009>014-019>023-028>033-038-089-031900-
   NORTHEAST OHIO

CITY           SKY/WX    TMP DP  RH WIND       PRES   REMARKS
CLE-HOPKINS    FAIR      57  40  52 NW7       29.90F
CLE-LAKEFRONT  FAIR      52  41  66 NW7       29.89F
CUY CO. ARPT   MOSUNNY   57  45  62 N8        29.89F
LORAIN-ELYRIA  CLOUDY    56  37  49 N9        29.89F
ASHTABULA      FAIR      53  43  68 N9G16     29.87F
AKRON-CANTON   CLOUDY    57  42  57 N6        29.86F
WOOSTER        PTSUNNY   56  43  61 CALM      29.88F
MANSFIELD      CLOUDY    56  43  61 NW5       29.88F
YOUNGSTOWN     PTSUNNY   56  42  59 W7        29.86F
$$

OHZ042-051>053-060>062-070>072-077>081-031900-
  SOUTHWEST OHIO

CITY           SKY/WX    TMP DP  RH WIND       PRES   REMARKS
CINC-COVINGTON CLOUDY    58  52  80 N10       29.90F
CINC-LUNKEN    LGT RAIN  55  53  93 N3        29.91S FOG
HAMILTON       CLOUDY    55  49  80 NW10      29.93S
DAYTON         CLOUDY    56  45  66 NE5       29.91F
WRIGHT-PAT AFB DRIZZLE   54  49  81 NW5       29.90F
DAYTON GENERAL LGT RAIN  54  45  71 VRB6      29.90S
WILMINGTON     CLOUDY    55  48  77 NW7       29.89F
$$

OHZ036-037-039>041-045>050-054>059-063>069-073>076-082>088-031900-
  CENTRAL AND SOUTHEAST OHIO

CITY           SKY/WX    TMP DP  RH WIND       PRES   REMARKS
COLUMBUS       CLOUDY    59  44  57 NW5       29.87F
OSU AIRPORT    CLOUDY    59  46  62 N9        29.87F
BOLTON FIELD   CLOUDY    59  46  63 N3        29.88F
RICKENBACK AFB CLOUDY    59  45  60 NW5       29.87F
NEWARK         CLOUDY    61  44  53 CALM      29.86F
MARION         CLOUDY    56  44  64 N8        29.90S
LANCASTER      CLOUDY    59  46  62 NW3       29.88F
ZANESVILLE     LGT RAIN  59  45  59 CALM      29.87F
NEW PHILLY     CLOUDY    59  42  53 NW8       29.86F
$$




USA.gov is the U.S. government's official web portal to all federal, state and local government web resources and services.